Starlink 11412

operational
NORAD ID: 63062 Int'l Des: 2025-035 Owner: SPXS Country: US Constellation: starlink
LEOCIRCULAR

Über Starlink 11412

Beschreibung wird geladen...

Live-Position

3D-Globus wird geladen...

Nächste Überflüge

Höhenverlauf

Altitude vs Time

uPlot chart will show altitude changes over time

Zweizeiliger Elementsatz

1 63062U 25035L 26033.92807859 .00292048 00000-0 21924-2 0 9999
2 63062 42.9992 224.8805 0002596 290.5017 69.5572 15.70926754 55751
Epoch: 2. Feb. 2026 • Age: 19 hours

Aktueller Status

Höhe 366.5 km
Geschwindigkeit 7.69 km/s
Subsatellitenpunkt -42.86°S, 98.06°E
Startdatum 21. Feb. 2025
Alter 0.9 years
Typ internet

Technische Details

Klassifizierung Payload
Masse 960.00 kg
Trockenmasse 910.00 kg
Gesamtmasse 960.00 kg
Länge 0.30 m
Durchmesser 4.10 m
Spannweite 29.00 m
Form Box + pan
Hersteller SPXS
Bus-Typ Starlink V2MD
Phasenstatus In Orbit
Besitzer/Staat SPXS/US

Große Konstellationen

Loading constellations...